Weather History for Batman, Turkey

Change the Weather History Date:

Wednesday, April 30, 2014

  Actual Average (LTCC) Record (LTCC)
Temperature  
Mean Temperature 61 °F -  
Max Temperature 79 °F 69 °F 87 °F (2013)
Min Temperature 43 °F 46 °F 42 °F (2001)
Degree Days  
Heating Degree Days 4    
Growing Degree Days 11 (Base 50)    
Moisture  
Dew Point 43 °F    
Average Humidity 50    
Maximum Humidity 100    
Minimum Humidity 11    
Precipitation  
Precipitation 0.00 in - - ()
Sea Level Pressure  
Sea Level Pressure 29.89 in    
Wind  
Wind Speed 4 mph ()    
Max Wind Speed 10 mph    
Max Gust Speed 25 mph    
Visibility 8.8 miles    
Events      
Averages and records for this station are not official NWS values.
T = Trace of Precipitation, MM = Missing Value Source: Averaged Metar Reports

Daily Weather History Graph

Daily Weather History Graph

Search for Another Location

Airport:

Trip Planner

Search our weather history database for the weather conditions in past years. The results will help you decide how hot, cold, wet, or windy it might be!

Date:

Astronomy

Apr. 30, 2014 Rise Set
Actual Time 5:21 AM EEST 7:05 PM EEST
Civil Twilight 4:52 AM EEST 7:33 PM EEST
Nautical Twilight 4:18 AM EEST 8:07 PM EEST
Astronomical Twilight 3:42 AM EEST 8:43 PM EEST
Moon 6:06 AM EEST (4/30) 8:22 PM EEST (4/30)
Length of Visible Light 14h 40m
Length of Day
13h 43m
New Moon, 1% of the Moon is Illuminated
Apr 30
New Moon
May 7
First Quarter
May 14
Full
May 21
Last Quarter
May 28
New

Hourly Weather History & Observations

Time (EEST) Temp. Windchill Dew Point Humidity Pressure Visibility Wind Dir Wind Speed Gust Speed Precip Events Conditions
12:20 AM 51.8 °F - 48.2 °F 88% 29.89 in - NNE 4.6 mph - N/A   Clear
12:50 AM 51.8 °F - 46.4 °F 82% 29.89 in - NNE 3.5 mph - N/A   Clear
1:20 AM 51.8 °F - 48.2 °F 88% 29.89 in - NE 3.5 mph - N/A   Clear
1:50 AM 50.0 °F - 46.4 °F 87% 29.89 in - North 4.6 mph - N/A   Clear
2:20 AM 50.0 °F - 48.2 °F 94% 29.89 in - Variable 2.3 mph - N/A   Clear
3:20 AM 50.0 °F - 48.2 °F 94% 29.89 in - SW 4.6 mph - N/A   Clear
3:50 AM 50.0 °F - 48.2 °F 94% 29.89 in - West 4.6 mph - N/A   Clear
4:20 AM 48.2 °F - 46.4 °F 93% 29.89 in - Variable 1.2 mph - N/A   Clear
4:50 AM 48.2 °F - 46.4 °F 93% 29.89 in - Variable 1.2 mph - N/A   Clear
5:20 AM 46.4 °F - 44.6 °F 93% 29.89 in - NNE 2.3 mph - N/A   Clear
5:50 AM 46.4 °F 45.2 °F 46.4 °F 100% 29.92 in - Variable 3.5 mph - N/A   Clear
6:20 AM 50.0 °F - 46.4 °F 87% 29.92 in - South 2.3 mph - N/A   Clear
6:50 AM 51.8 °F - 48.2 °F 88% 29.92 in - Variable 1.2 mph - N/A   Clear
7:20 AM 53.6 °F - 46.4 °F 77% 29.92 in - NE 3.5 mph - N/A   Clear
7:50 AM 57.2 °F - 48.2 °F 72% 29.92 in - NNE 3.5 mph - N/A   Clear
8:20 AM 60.8 °F - 48.2 °F 63% 29.95 in - Variable 2.3 mph - N/A   Clear
8:50 AM 64.4 °F - 46.4 °F 52% 29.95 in - Variable 2.3 mph - N/A   Clear
9:00 AM 64 °F - 44 °F 38% 29.89 in 12 mi NNE 1.2 mph - -  
9:20 AM 66.2 °F - 46.4 °F 49% 29.95 in - Variable 2.3 mph - N/A   Clear
9:50 AM 68.0 °F - 44.6 °F 43% 29.95 in - Variable 3.5 mph - N/A   Clear
10:00 AM 68 °F - 42 °F 28% 29.91 in 12 mi NNW 1.2 mph - -  
10:20 AM 69.8 °F - 46.4 °F 43% 29.95 in 6.2 mi Variable 2.3 mph - N/A   Scattered Clouds
10:50 AM 69.8 °F - 44.6 °F 40% 29.95 in 6.2 mi Variable 4.6 mph - N/A   Scattered Clouds
11:00 AM 71 °F - 44 °F 26% 29.90 in 12 mi ENE 1.2 mph - -  
11:20 AM 71.6 °F - 44.6 °F 38% 29.95 in 6.2 mi NNW 5.8 mph - N/A   Scattered Clouds
11:50 AM 73.4 °F - 46.4 °F 38% 29.92 in 6.2 mi North 4.6 mph - N/A   Scattered Clouds
12:00 PM 73 °F - 44 °F 25% 29.88 in 12 mi NNW 2.3 mph - -   Scattered Clouds
12:20 PM 73.4 °F - 42.8 °F 33% 29.92 in 6.2 mi NNE 5.8 mph - N/A   Scattered Clouds
12:50 PM 75.2 °F - 42.8 °F 31% 29.92 in 6.2 mi Variable 4.6 mph - N/A   Scattered Clouds
1:00 PM 75 °F - 37 °F 15% 29.87 in 12 mi SSW 8.1 mph - -   Partly Cloudy
1:20 PM 77.0 °F - 39.2 °F 26% 29.92 in 6.2 mi Variable 4.6 mph - N/A   Scattered Clouds
1:50 PM 77.0 °F - 35.6 °F 22% 29.89 in 6.2 mi SSW 10.4 mph - N/A   Scattered Clouds
2:00 PM 77 °F - 33 °F 11% 29.86 in 12 mi WSW 5.8 mph - -   Partly Cloudy
2:20 PM 77.0 °F - 35.6 °F 22% 29.89 in 6.2 mi WSW 5.8 mph - N/A   Mostly Cloudy
2:50 PM 78.8 °F - 35.6 °F 21% 29.89 in 6.2 mi SSW 6.9 mph 25.3 mph N/A   Mostly Cloudy
3:00 PM 78 °F - 34 °F 11% 29.85 in 12 mi WSW 5.8 mph - -   Partly Cloudy
3:20 PM 77.0 °F - 35.6 °F 22% 29.89 in 6.2 mi SW 10.4 mph - N/A   Mostly Cloudy
3:50 PM 78.8 °F - 35.6 °F 21% 29.86 in 6.2 mi WSW 6.9 mph - N/A   Scattered Clouds
4:00 PM 79 °F - 37 °F 13% 29.84 in 12 mi WSW 6.9 mph - -   Partly Cloudy
4:20 PM 77.0 °F - 37.4 °F 24% 29.86 in 6.2 mi WSW 10.4 mph - N/A   Scattered Clouds
4:50 PM 77.0 °F - 39.2 °F 26% 29.86 in 6.2 mi WSW 9.2 mph - N/A   Scattered Clouds
5:00 PM 78 °F - 36 °F 13% 29.83 in 12 mi WSW 5.8 mph - -   Partly Cloudy
5:20 PM 75.2 °F - 37.4 °F 25% 29.86 in 6.2 mi WSW 10.4 mph - N/A   Scattered Clouds
5:50 PM 75.2 °F - 39.2 °F 27% 29.86 in 6.2 mi West 9.2 mph - N/A   Scattered Clouds
6:00 PM 76 °F - 40 °F 17% 29.83 in 12 mi West 4.6 mph - -   Partly Cloudy
6:20 PM 73.4 °F - 39.2 °F 29% 29.86 in - West 6.9 mph - N/A   Clear
6:50 PM 69.8 °F - 44.6 °F 40% 29.86 in - WNW 3.5 mph - N/A   Clear
7:00 PM 71 °F - 42 °F 23% 29.83 in 12 mi West 4.6 mph - -  
7:20 PM 66.2 °F - 44.6 °F 46% 29.86 in - Variable 1.2 mph - N/A   Clear
7:50 PM 66.2 °F - 44.6 °F 46% 29.89 in - South 3.5 mph - N/A   Clear
8:00 PM 65 °F - 45 °F 36% 29.84 in 12 mi SSW 2.3 mph - -  
8:20 PM 64.4 °F - 42.8 °F 45% 29.89 in - SSW 3.5 mph - N/A   Clear
8:50 PM 62.6 °F - 44.6 °F 52% 29.89 in - Variable 2.3 mph - N/A   Clear
9:00 PM 61 °F - 46 °F 46% 29.86 in 12 mi East 3.5 mph - -  
9:20 PM 60.8 °F - 46.4 °F 59% 29.92 in - Variable 2.3 mph - N/A   Clear
9:50 PM 59.0 °F - 44.6 °F 59% 29.92 in - NNE 4.6 mph - N/A   Clear
10:20 PM 55.4 °F - 46.4 °F 72% 29.89 in - North 6.9 mph - N/A   Clear
10:50 PM 53.6 °F - 46.4 °F 77% 29.89 in - NNE 8.1 mph - N/A   Clear
11:20 PM 53.6 °F - 46.4 °F 77% 29.89 in - NE 9.2 mph - N/A   Clear
11:50 PM 53.6 °F - 46.4 °F 77% 29.89 in - NE 9.2 mph - N/A   Clear